User: anonymous
Location: Livonia
(42.3680°N, 83.3530°W)
Time: 13:10:38
(UTC-04:00)
Language:

MOZ.5/SAFIR/RUBIN 5/SL-8 - Orbit

View from above orbital plane
View from above orbital plane
View from above satellite
View from above satellite

Ground track
Ground track

The orbit data is extracted from the following two-line orbital elements,

1 28898U 05043G   14210.59647124  .00000193  00000-0  49830-4 0  8791
2 28898 097.8376 037.8273 0018784 260.9135 139.6738 14.59500288466118
Epoch (UTC): 29 July 2014 14:18:55
Eccentricity: 0.0018784
inclination: 97.8376°
perigee height: 681 km
apogee height: 708 km
right ascension of ascending node: 37.8273°
argument of perigee: 260.9135°
revolutions per day: 14.59500288
mean anomaly at epoch: 139.6738°
orbit number at epoch: 46611

The dashed part of the orbit path shows where the satellite is in the earth's shadow,  

DLR